Weather Roundup
Issued by NWS Springfield, MO

Home | Current Version | Previous Version | Text Only | Print | Product List | Glossary On
Versions: 1 2 3 4 5 6 7 8 9 10 11 12 13 14 15 16 17 18 19 20 21 22 23 24 25 26 27 28 29 30 31 32 33 34 35 36 37 38 39 40 41 42 43 44 45 46 47 48 49 50
000
NZUS99 KSGF 231007
HRRSGF

HOURLY WEATHER
NATIONAL WEATHER SERVICE SPRINGFIELD MO
500 AM CDT TUE SEP 23 2014

......SGF CWA......

CITY           SKY/WX    TMP DP  RH WIND       PRES   REMARKS
SPRINGFIELD    PTCLDY    53  48  83 SE7       30.24R
JOPLIN         CLEAR     54  50  86 SE6       30.23R
WEST PLAINS    CLEAR     46  43  89 CALM      30.27S
ROLLA          PTCLDY    54  45  71 SE9       30.25R
OSAGE BEACH    CLEAR     48  45  87 S3        30.26R
BRANSON        PTCLDY    52  50  93 SE5       30.26R

......SURROUNDING SGF CWA......

CITY           SKY/WX    TMP DP  RH WIND       PRES   REMARKS
CHANUTE        MOCLDY    56  53  90 SE7       30.20S
PARSONS        MOCLDY    58  54  86 E5        30.21S
COFFEYVILLE    MOCLDY    54  52  93 CALM      30.19F
EMPORIA        PTCLDY    56  52  86 S9        30.19S
GROVE OK       CLEAR     52  52 100 CALM      30.24R
ROGERS AR      CLEAR     55  51  86 E6        30.25R
SILOAM SPRINGS CLEAR     52  45  76 CALM      30.25R
HARRISON AR    PTCLDY    50  49  96 E5        30.25S
NEAR YELLVILLE CLOUDY    48  43  81 CALM      30.25S VSB 1

......KANSAS AND MISSOURI......

CITY           SKY/WX    TMP DP  RH WIND       PRES   REMARKS
KANSAS CTY INT PTCLDY    54  51  90 SE9       30.21S
DOWNTOWN KC    PTCLDY    60  50  69 S7        30.22R
COLUMBIA       PTCLDY    54  48  80 SE6       30.26R
SEDALIA        PTCLDY    52  47  83 SE3       30.24R
ST JOSEPH      MOCLDY    50  49  96 CALM      30.20S
ST LOUIS       MOCLDY    52  48  86 CALM      30.28R
SPIRIT OF STL  FOG       46  45  96 CALM      30.26S VSB 3/4
KIRKSVILLE     CLEAR     48  32  53 SE3       30.27R
WICHITA        MOCLDY    58  51  78 S9        30.16F
TOPEKA         MOCLDY    57  52  83 E3        30.20R
OLATHE         PTCLDY    55  50  83 CALM      30.22R

......TENNESSEE......

CITY           SKY/WX    TMP DP  RH WIND       PRES   REMARKS
MEMPHIS        CLEAR     58  47  66 NE5       30.22R
NASHVILLE      CLEAR     52  46  80 NE5       30.24R

......ARKANSAS.......

CITY           SKY/WX    TMP DP  RH WIND       PRES   REMARKS
FAYETTEVILLE   CLEAR     47  47 100 CALM      30.24R
FT SMITH       PTCLDY    57  54  89 N3        30.22R
LITTLE ROCK    CLEAR     54  48  80 NE5       30.21S

......OKLAHOMA.......

CITY           SKY/WX    TMP DP  RH WIND       PRES   REMARKS
TULSA          MOCLDY    54  53  97 SE7       30.20S
PONCA CITY     PTCLDY    57  51  80 SE7       30.17F
MCALESTER      PTCLDY    56  53  90 E5        30.21R
OKLAHOMA CITY  MOCLDY    57  50  77 S3        30.18R

......IOWA............

CITY           SKY/WX    TMP DP  RH WIND       PRES   REMARKS
DES MOINES     CLEAR     55  50  83 S7        30.23R
QUAD CITIES    CLEAR     45  43  93 CALM      30.28R

......ILLINOIS........

CITY           SKY/WX    TMP DP  RH WIND       PRES   REMARKS
QUINCY         CLEAR     50  42  74 SE6       30.26S
CHICAGO        CLEAR     52  43  71 W5        30.29R




USA.gov is the U.S. government's official web portal to all federal, state and local government web resources and services.